EW0401 Weather Reports


Display with metric or nautical units.
time (UTC)temp
F
wind
direction
speed
MPH
gust
MPH
rain 1hr
in
rain 24hr
in
rain mn
in
humidity
%
barometer
mb
20260831061602 82 0 0.0 0.0 0.00 0.00 0.00 85 1016.0
20260831060108 81 0 0.0 0.0 0.00 0.00 0.00 85 1016.0
20260831054604 82 0 0.0 0.0 0.00 0.00 0.00 85 1016.1
20260831053104 82 0 0.0 0.0 0.00 0.00 0.00 85 1016.2
20260831051611 82 0 0.0 0.0 0.00 0.00 0.00 84 1015.9
20260831050108 83 0 0.0 0.0 0.00 0.00 0.00 84 1015.8
20260831044616 83 0 0.0 0.0 0.00 0.00 0.00 84 1015.9
20260831043105 83 0 0.0 0.0 0.00 0.00 0.00 82 1015.8
20260831041605 84 0 0.0 1.0 0.00 0.00 0.00 82 1015.8
20260831040107 84 0 0.0 2.0 0.00 0.00 0.00 82 1015.7
20260831034607 84 0 0.0 2.0 0.00 0.00 0.00 82 1015.7
20260831033119 85 0 0.0 2.0 0.00 0.00 0.00 81 1015.6
20260831031600 85 0 0.0 3.0 0.00 0.00 0.00 80 1015.4
20260831030104 85 0 0.0 2.0 0.00 0.00 0.00 80 1015.4
20260831024621 85 0 0.0 4.0 0.00 0.00 0.00 80 1015.3
20260831023102 85 0 0.0 1.0 0.00 0.00 0.00 80 1014.9
20260831021601 85 0 0.0 0.0 0.00 0.00 0.00 79 1014.7
20260831020105 85 0 0.0 1.0 0.00 0.00 0.00 78 1014.6
20260831014603 86 0 0.0 2.0 0.00 0.00 0.00 78 1014.6
20260831013103 86 208 0.0 2.0 0.00 0.00 0.00 77 1014.5
20260831011605 86 0 0.0 0.0 0.00 0.00 0.00 76 1014.4
20260831010110 87 208 0.0 2.0 0.00 0.00 0.00 75 1014.3
20260831004606 88 0 0.0 5.0 0.00 0.00 0.00 73 1014.3
20260831003105 89 0 0.0 2.0 0.00 0.00 0.00 72 1014.3
20260831001611 90 0 0.0 5.0 0.00 0.00 0.00 70 1014.4
20260831000108 92 0 0.0 2.0 0.00 0.00 0.00 66 1014.6
20260830234605 92 0 0.0 2.0 0.00 0.00 0.00 63 1014.5
20260830233109 93 0 0.0 5.0 0.00 0.00 0.00 61 1014.5
20260830231605 95 0 0.0 2.0 0.00 0.00 0.00 56 1014.6
20260830230105 96 302 0.0 3.0 0.00 0.00 0.00 56 1014.4
20260830224603 96 0 0.0 4.0 0.00 0.00 0.00 56 1014.4
20260830223109 98 190 0.0 3.0 0.00 0.00 0.00 54 1014.3
20260830221603 99 0 0.0 3.0 0.00 0.00 0.00 54 1014.3
20260830220107 99 0 0.0 5.0 0.00 0.00 0.00 50 1014.2
20260830214620 100 0 0.0 4.0 0.00 0.00 0.00 49 1014.2
20260830213106 100 0 0.0 2.0 0.00 0.00 0.00 45 1014.5
20260830211604 100 0 0.0 3.0 0.00 0.00 0.00 48 1014.4
20260830210104 99 224 0.0 4.0 0.00 0.00 0.00 47 1014.8
20260830204604 100 0 0.0 4.0 0.00 0.00 0.00 48 1015.1
20260830203106 99 200 0.0 5.0 0.00 0.00 0.00 49 1015.3
20260830201604 99 0 0.0 3.0 0.00 0.00 0.00 48 1015.4
20260830200107 99 0 0.0 3.0 0.00 0.00 0.00 49 1015.4
20260830194608 98 0 0.0 5.0 0.00 0.00 0.00 45 1015.6
20260830193131 98 0 0.0 3.0 0.00 0.00 0.00 47 1015.9
20260830191606 98 0 1.0 6.0 0.00 0.00 0.00 47 1016.1
20260830190105 98 0 0.0 4.0 0.00 0.00 0.00 47 1016.5
20260830184606 97 232 0.0 6.0 0.00 0.00 0.00 53 1016.8
20260830183103 97 0 0.0 6.0 0.00 0.00 0.00 53 1016.8
20260830181610 97 206 0.0 5.0 0.00 0.00 0.00 57 1016.9
20260830180114 97 0 0.0 4.0 0.00 0.00 0.00 60 1017.1
20260830174618 96 23 1.0 4.0 0.00 0.00 0.00 61 1017.3
20260830173116 96 0 0.0 3.0 0.00 0.00 0.00 59 1017.5
20260830171607 95 0 0.0 3.0 0.00 0.00 0.00 60 1017.5
20260830170110 95 0 1.0 4.0 0.00 0.00 0.00 62 1017.6
20260830164605 94 266 0.0 2.0 0.00 0.00 0.00 63 1017.6
20260830163108 94 0 0.0 6.0 0.00 0.00 0.00 62 1017.7
20260830161604 93 0 0.0 4.0 0.00 0.00 0.00 63 1017.8
20260830160108 93 257 0.0 4.0 0.00 0.00 0.00 64 1017.7
20260830154604 91 0 0.0 6.0 0.00 0.00 0.00 68 1017.7
20260830153113 90 0 0.0 4.0 0.00 0.00 0.00 68 1017.7
20260830151608 89 264 0.0 4.0 0.00 0.00 0.00 73 1017.9
20260830150104 88 0 0.0 2.0 0.00 0.00 0.00 74 1018.0
20260830144610 87 0 0.0 4.0 0.00 0.00 0.00 77 1017.9
20260830143103 86 0 0.0 3.0 0.00 0.00 0.00 79 1018.0
20260830141603 86 0 0.0 3.0 0.00 0.00 0.00 82 1017.9
20260830140107 85 0 0.0 2.0 0.00 0.00 0.00 83 1017.9
20260830134616 84 0 0.0 2.0 0.00 0.00 0.00 84 1017.7
20260830133111 82 0 0.0 3.0 0.00 0.00 0.00 86 1017.6
20260830131609 81 0 0.0 0.0 0.00 0.00 0.00 88 1017.5
20260830130111 80 0 0.0 0.0 0.00 0.00 0.00 91 1017.3
20260830124605 78 0 0.0 0.0 0.00 0.00 0.00 91 1017.1
20260830123109 77 0 0.0 0.0 0.00 0.00 0.00 90 1016.9
20260830121607 76 0 0.0 0.0 0.00 0.00 0.00 90 1016.8
20260830120106 77 0 0.0 0.0 0.00 0.00 0.00 90 1016.9
20260830114627 77 240 0.0 0.0 0.00 0.00 0.00 90 1016.6
20260830114613 76 0 0.0 0.0 0.00 0.00 0.00 90 1017.1
20260830114526 77 240 0.0 0.0 0.00 0.00 0.00 90 1016.7
20260830113106 77 0 0.0 0.0 0.00 0.00 0.00 90 1017.0
20260830111601 77 0 0.0 0.0 0.00 0.00 0.00 89 1016.7
20260830110106 77 0 0.0 0.0 0.00 0.00 0.00 89 1016.6
20260830104621 77 0 0.0 0.0 0.00 0.00 0.00 89 1016.5
20260830103119 77 0 0.0 0.0 0.00 0.00 0.00 89 1016.5
20260830101610 77 0 0.0 0.0 0.00 0.00 0.00 89 1016.4
20260830100110 78 0 0.0 0.0 0.00 0.00 0.00 89 1016.3
20260830094602 78 0 0.0 0.0 0.00 0.00 0.00 89 1016.3
20260830093107 78 0 0.0 0.0 0.00 0.00 0.00 89 1016.2
20260830091602 78 0 0.0 0.0 0.00 0.00 0.00 89 1016.3
20260830090106 78 0 0.0 0.0 0.00 0.00 0.00 89 1016.3
20260830084605 78 0 0.0 0.0 0.00 0.00 0.00 88 1016.5
20260830083109 78 0 0.0 0.0 0.00 0.00 0.00 88 1016.3
20260830081557 78 0 0.0 0.0 0.00 0.00 0.00 87 1016.3
20260830080120 79 0 0.0 0.0 0.00 0.00 0.00 87 1016.5
20260830074604 79 0 0.0 0.0 0.00 0.00 0.00 87 1016.4
20260830073104 80 0 0.0 0.0 0.00 0.00 0.00 86 1016.5
20260830071622 80 0 0.0 0.0 0.00 0.00 0.00 86 1016.6
20260830070105 81 0 0.0 0.0 0.00 0.00 0.00 85 1016.6
20260830064603 81 0 0.0 0.0 0.00 0.00 0.00 85 1016.6
20260830063112 82 0 0.0 0.0 0.00 0.00 0.00 85 1016.6